z/d,0,0,50,50,100,100,200,200,300,300,400,400,500,500,750,750,1000,1000,2000,2000,3000,3000,4000,4000,4700,4700
2016.08.27-01:00,.87,93.63,1.08,58.33,1.15,68.00,.97,80.20,.89,79.06,.86,70.86,.79,71.83,.57,83.38,.31,95.63,.29,111.53,.08,33.60,.10,15.90,.01,270.00
2016.08.27-02:00,.74,93.98,1.12,59.88,1.19,70.43,.97,79.01,.89,78.12,.89,71.21,.83,73.16,.57,83.23,.30,90.34,.28,113.00,.10,44.08,.13,27.89,.00,90.00
2016.08.27-03:00,.64,89.00,1.18,61.27,1.23,72.82,.98,77.57,.90,76.22,.92,71.03,.86,74.15,.57,82.27,.31,84.54,.28,112.56,.12,50.95,.15,37.28,.01,90.00
2016.08.27-04:00,.60,79.11,1.24,62.71,1.24,75.18,.99,76.75,.91,74.49,.94,71.01,.87,75.04,.58,80.52,.33,78.15,.28,109.66,.13,55.75,.16,44.81,.02,90.00
2016.08.27-05:00,.63,69.06,1.30,64.89,1.25,77.73,1.00,76.83,.93,73.55,.96,71.49,.86,75.82,.58,78.24,.36,71.96,.28,105.75,.15,60.16,.16,51.70,.02,90.00
2016.08.27-06:00,.70,60.66,1.34,67.24,1.23,80.06,.99,77.10,.94,73.20,.97,72.40,.86,76.58,.59,76.90,.40,68.44,.28,102.02,.15,62.69,.15,55.47,.02,90.00
2016.08.27-07:00,.82,54.33,1.38,69.11,1.19,81.51,.97,76.63,.95,72.87,.97,73.53,.85,77.61,.60,77.98,.44,68.62,.27,99.83,.14,63.22,.14,54.56,.02,90.00
2016.08.27-08:00,.98,51.95,1.45,71.41,1.16,82.18,.94,75.08,.95,72.26,.96,74.52,.82,78.53,.59,80.86,.45,70.86,.27,99.46,.13,63.05,.13,50.06,.01,90.00
2016.08.27-09:00,1.06,54.77,1.52,74.99,1.12,82.29,.93,72.77,.95,71.55,.95,75.28,.79,78.91,.56,84.60,.45,74.11,.25,100.79,.12,62.42,.12,42.87,.01,90.00
2016.08.27-10:00,1.02,60.71,1.54,79.69,1.08,81.71,.94,70.50,.97,71.26,.93,76.03,.76,78.63,.51,88.11,.44,77.62,.24,103.16,.11,61.04,.12,34.58,.00,90.00
2016.08.27-11:00,1.07,60.90,1.49,84.42,1.02,80.33,.95,69.14,.97,72.01,.92,77.48,.73,78.61,.46,90.80,.43,81.19,.23,105.60,.09,58.37,.12,26.92,.00,270.00
2016.08.27-12:00,1.01,59.43,1.36,87.96,.96,78.09,.95,68.53,.96,73.37,.89,79.60,.71,79.31,.42,91.83,.43,84.67,.22,106.91,.07,53.13,.12,21.10,.00,270.00
2016.08.27-13:00,.97,57.77,1.22,90.20,.91,75.33,.95,68.17,.94,74.31,.86,81.43,.69,79.97,.40,89.75,.43,87.30,.22,106.95,.07,47.23,.13,19.57,.00,270.00
2016.08.27-14:00,.96,59.04,1.10,92.37,.89,73.03,.96,68.26,.92,74.56,.83,82.12,.67,79.44,.38,83.47,.43,88.33,.21,106.06,.06,46.80,.13,25.04,.00,90.00
2016.08.27-15:00,1.00,64.09,1.02,95.32,.91,72.12,1.00,69.24,.92,74.57,.80,81.39,.66,77.09,.37,72.99,.40,87.36,.21,103.52,.07,52.51,.13,36.94,.01,90.00
2016.08.27-16:00,1.06,69.39,.96,97.77,.96,72.24,1.04,70.62,.93,74.24,.78,79.35,.65,73.62,.38,61.98,.38,85.51,.21,99.54,.08,57.51,.13,49.18,.02,90.00
2016.08.27-17:00,1.08,72.09,.86,98.08,.97,71.66,1.05,71.37,.94,72.94,.77,76.18,.67,70.27,.43,56.99,.38,85.25,.22,95.97,.08,57.47,.13,56.77,.02,90.00
2016.08.27-18:00,1.07,73.05,.73,94.86,.94,69.55,1.05,71.81,.94,71.78,.78,73.38,.70,68.57,.50,58.05,.39,86.49,.24,93.72,.08,52.92,.11,59.92,.02,90.00
2016.08.27-19:00,1.10,75.04,.62,84.55,.91,65.66,1.03,72.57,.95,72.04,.79,72.34,.74,69.08,.56,61.43,.40,87.75,.25,92.52,.07,47.66,.09,61.33,.01,90.00
2016.08.27-20:00,1.10,73.62,.60,69.15,.93,62.33,1.02,73.85,.95,73.36,.81,72.24,.76,70.21,.59,64.83,.39,89.15,.25,93.14,.07,43.57,.07,59.75,.00,90.00
2016.08.27-21:00,1.14,73.98,.69,58.24,1.00,61.92,1.03,75.16,.96,74.51,.82,71.66,.77,70.39,.59,67.93,.36,91.25,.26,96.30,.07,39.53,.05,47.56,.00,270.00
2016.08.27-22:00,1.19,75.57,.84,53.17,1.08,63.59,1.04,76.41,.96,75.52,.82,71.03,.76,70.17,.57,71.01,.33,93.26,.26,101.46,.07,36.63,.04,23.88,.01,270.00
2016.08.27-23:00,1.20,76.36,.98,51.42,1.14,65.81,1.04,77.58,.95,76.71,.82,71.12,.75,70.58,.55,74.66,.30,94.37,.25,107.71,.06,33.97,.05,3.65,.02,270.00
2016.08.27-24:00,1.17,77.60,1.09,51.54,1.18,68.03,1.03,78.48,.94,78.00,.82,71.97,.74,71.91,.54,78.68,.29,94.01,.25,113.76,.06,33.12,.07,357.74,.02,270.00
2016.08.28-01:00,1.08,78.30,1.17,52.77,1.21,70.16,1.01,78.69,.92,78.75,.82,72.80,.74,73.34,.53,81.66,.29,91.72,.24,118.19,.07,37.42,.09,2.89,.02,270.00
2016.08.28-02:00,.97,78.08,1.22,54.42,1.22,72.11,.99,78.08,.90,78.57,.83,73.14,.76,74.54,.52,83.35,.29,88.78,.23,120.59,.08,45.45,.10,13.66,.01,270.00
2016.08.28-03:00,.89,76.00,1.26,56.36,1.24,74.12,.99,77.09,.89,77.47,.85,72.92,.78,75.41,.52,83.34,.30,84.88,.23,120.10,.09,52.10,.12,24.84,.00,270.00
2016.08.28-04:00,.84,71.99,1.30,59.00,1.25,76.64,.99,76.57,.89,76.07,.87,72.47,.79,75.98,.53,81.40,.32,79.24,.22,116.33,.11,57.87,.13,35.98,.00,90.00
2016.08.28-05:00,.83,67.90,1.34,62.06,1.25,79.38,1.00,76.60,.90,74.77,.88,72.10,.79,76.27,.54,78.23,.35,72.87,.22,110.43,.13,62.77,.14,46.48,.01,90.00
2016.08.28-06:00,.83,62.86,1.37,64.84,1.22,81.62,.99,76.70,.92,73.81,.90,72.09,.80,76.42,.56,75.51,.39,68.33,.23,103.89,.14,65.43,.15,53.90,.02,90.00
2016.08.28-07:00,.85,57.65,1.40,67.18,1.18,82.85,.98,76.26,.94,73.08,.93,72.46,.80,76.57,.58,75.08,.43,67.71,.23,98.80,.14,65.86,.14,57.05,.02,90.00
2016.08.28-08:00,.91,53.80,1.45,69.80,1.14,82.94,.97,74.92,.96,72.32,.94,72.82,.80,76.37,.59,76.65,.45,69.72,.23,95.16,.14,64.54,.14,56.54,.02,90.00
2016.08.28-09:00,.97,51.43,1.50,73.35,1.09,82.31,.97,73.19,.97,71.89,.95,73.36,.79,75.94,.57,79.58,.45,72.76,.23,92.64,.13,62.94,.14,54.33,.01,90.00
2016.08.28-10:00,1.01,49.12,1.54,78.16,1.05,81.09,.98,71.53,.99,71.82,.95,73.99,.77,75.18,.54,83.20,.44,76.20,.21,91.19,.11,60.83,.12,49.97,.01,90.00
2016.08.28-11:00,1.04,48.22,1.54,84.00,1.02,79.41,.99,70.39,.99,72.11,.94,74.70,.75,74.15,.49,86.85,.42,80.06,.21,91.74,.10,56.93,.11,41.63,.00,90.00
2016.08.28-12:00,1.05,46.30,1.47,89.55,.99,77.35,1.00,69.93,.98,72.87,.92,75.95,.73,73.73,.44,89.81,.40,84.17,.20,94.45,.08,48.93,.10,28.84,.00,270.00
2016.08.28-13:00,1.04,43.13,1.33,94.01,.97,74.99,1.00,69.61,.96,73.57,.89,77.53,.72,74.14,.40,90.43,.39,87.55,.20,98.08,.07,37.09,.10,16.86,.01,270.00
2016.08.28-14:00,1.02,42.01,1.17,97.96,.94,72.90,1.00,69.30,.93,73.77,.86,78.78,.70,74.77,.36,87.28,.38,89.53,.20,101.81,.06,30.56,.10,13.55,.01,270.00
2016.08.28-15:00,1.00,45.34,1.04,101.56,.95,71.74,1.01,69.35,.92,73.36,.83,78.97,.69,74.57,.34,79.33,.36,89.34,.20,104.38,.07,33.56,.10,20.19,.00,270.00
2016.08.28-16:00,1.03,53.71,.94,104.02,.99,71.99,1.04,70.32,.92,72.85,.81,78.15,.69,73.42,.34,68.29,.34,87.03,.19,105.36,.08,41.98,.10,33.57,.00,90.00
2016.08.28-17:00,1.03,59.46,.84,104.28,1.01,72.68,1.07,71.63,.93,72.18,.81,76.54,.70,72.06,.38,59.82,.33,83.91,.19,104.17,.09,48.47,.10,45.95,.01,90.00
2016.08.28-18:00,.99,61.99,.71,100.99,.99,72.32,1.08,72.80,.95,71.54,.82,74.91,.73,71.74,.44,58.00,.35,82.33,.20,101.53,.10,50.92,.10,52.94,.01,90.00
2016.08.28-19:00,.95,62.44,.59,92.04,.94,70.40,1.09,74.30,.97,71.74,.84,74.27,.77,72.79,.51,59.72,.37,81.58,.20,98.47,.10,51.81,.09,56.43,.01,90.00
2016.08.28-20:00,.94,63.61,.55,78.21,.92,67.88,1.08,76.34,.99,72.85,.85,74.49,.79,74.21,.56,61.49,.37,80.76,.21,96.44,.10,53.18,.08,57.70,.00,90.00
2016.08.28-21:00,.96,66.79,.59,64.79,.95,66.20,1.08,78.41,1.00,74.23,.86,74.87,.79,75.37,.58,63.40,.36,81.03,.21,96.81,.10,53.71,.07,52.63,.00,270.00
2016.08.28-22:00,.96,66.14,.69,54.99,1.01,65.62,1.07,80.00,1.01,75.53,.86,75.24,.78,76.31,.57,66.28,.34,82.87,.21,99.49,.09,53.17,.06,38.58,.01,270.00
2016.08.28-23:00,1.01,66.38,.84,50.46,1.08,66.46,1.06,81.05,1.00,76.64,.86,75.53,.76,76.94,.55,70.01,.31,85.70,.21,104.00,.07,51.84,.05,17.50,.01,270.00
2016.08.28-24:00,1.04,67.73,.99,50.05,1.14,68.48,1.04,81.71,.99,77.63,.85,75.86,.74,77.28,.53,74.11,.29,88.43,.20,109.68,.06,48.76,.06,359.40,.02,270.00
2016.08.29-01:00,1.02,69.05,1.10,51.46,1.17,70.86,1.01,81.91,.97,78.40,.84,76.29,.72,77.44,.51,78.00,.28,89.87,.19,115.51,.05,45.29,.07,353.54,.02,270.00
2016.08.29-02:00,.98,69.54,1.16,53.33,1.18,72.95,.97,81.33,.94,78.64,.83,76.65,.70,77.40,.51,81.19,.28,89.80,.19,120.20,.05,43.83,.08,358.25,.02,270.00
2016.08.29-03:00,.92,68.74,1.20,55.52,1.16,74.68,.94,79.86,.92,78.18,.83,76.58,.70,77.01,.50,83.02,.29,88.14,.18,122.37,.05,46.71,.08,10.49,.02,270.00
2016.08.29-04:00,.89,66.96,1.25,58.55,1.15,76.39,.93,78.15,.91,77.47,.83,76.08,.71,76.34,.51,83.03,.31,84.55,.18,120.94,.07,51.00,.09,25.60,.01,270.00
2016.08.29-05:00,.91,66.03,1.31,62.26,1.15,78.05,.94,76.83,.92,76.93,.84,75.16,.72,75.20,.51,81.21,.32,79.01,.18,115.75,.09,56.10,.11,41.04,.00,90.00
2016.08.29-06:00,.95,66.96,1.36,66.27,1.15,79.35,.96,75.99,.94,76.58,.86,73.91,.73,73.51,.51,78.36,.35,73.03,.18,108.07,.12,60.24,.12,53.26,.01,90.00
2016.08.29-07:00,1.03,68.66,1.40,70.40,1.14,80.04,.98,75.28,.96,76.23,.89,72.60,.75,71.64,.52,76.41,.38,69.71,.19,100.27,.14,62.06,.14,59.78,.01,90.00
2016.08.29-08:00,1.15,70.48,1.42,74.36,1.12,79.84,.99,74.28,.97,75.69,.91,71.57,.77,70.09,.54,76.47,.41,69.59,.20,93.83,.15,61.96,.14,61.30,.02,90.00
2016.08.29-09:00,1.22,74.85,1.45,78.26,1.10,79.07,1.00,73.17,.98,75.19,.93,71.15,.79,69.18,.55,78.04,.43,70.86,.20,88.92,.15,61.35,.13,60.08,.01,90.00
2016.08.29-10:00,1.23,77.92,1.45,82.31,1.08,78.11,1.00,72.31,.97,74.92,.95,71.45,.80,68.85,.53,80.16,.43,72.16,.20,85.57,.14,60.78,.12,57.05,.01,90.00
2016.08.29-11:00,1.20,80.39,1.42,86.36,1.07,77.24,1.00,71.87,.96,74.89,.95,72.41,.80,69.07,.49,82.34,.41,73.71,.20,84.80,.12,59.35,.10,49.86,.00,90.00
2016.08.29-12:00,1.17,81.33,1.36,89.94,1.07,76.67,1.01,71.72,.95,74.96,.95,73.90,.80,69.90,.44,84.10,.39,76.16,.19,87.49,.10,54.84,.08,33.99,.01,270.00
2016.08.29-13:00,1.25,82.60,1.25,92.48,1.06,76.48,1.01,71.46,.94,74.85,.94,75.59,.81,71.29,.40,84.40,.37,79.45,.18,92.90,.07,45.69,.08,13.28,.01,270.00
2016.08.29-14:00,1.43,88.64,1.11,94.55,1.05,77.00,1.01,70.99,.92,74.28,.92,76.98,.80,72.82,.36,81.86,.36,82.82,.17,98.77,.06,35.14,.08,1.70,.02,270.00
2016.08.29-15:00,1.22,90.38,.98,96.42,1.03,78.04,1.00,70.43,.90,72.99,.89,77.50,.79,73.87,.34,75.47,.35,85.29,.17,103.14,.06,29.71,.08,1.98,.02,270.00
2016.08.29-16:00,1.20,94.36,.89,97.29,1.01,79.19,1.02,70.30,.90,71.51,.86,77.28,.78,74.48,.34,66.98,.34,86.64,.16,105.49,.06,32.36,.08,11.58,.01,270.00
2016.08.29-17:00,1.12,95.57,.82,96.31,1.00,80.06,1.05,70.80,.92,70.42,.84,76.64,.78,75.03,.38,60.18,.33,87.11,.16,105.72,.07,38.41,.08,25.16,.01,270.00
2016.08.29-18:00,1.09,97.20,.75,93.00,.97,80.03,1.08,71.74,.95,69.99,.84,75.80,.79,75.80,.43,57.55,.33,86.76,.16,104.29,.08,43.64,.09,36.32,.00,270.00
2016.08.29-19:00,1.09,100.57,.69,86.79,.93,78.40,1.11,73.07,.99,70.46,.86,75.26,.81,76.87,.49,58.18,.34,85.03,.17,101.84,.10,48.08,.09,44.23,.00,90.00
2016.08.29-20:00,1.10,102.96,.65,77.77,.89,75.17,1.12,74.95,1.02,72.00,.87,75.44,.82,78.21,.54,60.14,.34,81.76,.18,99.24,.11,52.73,.10,50.80,.00,90.00
2016.08.29-21:00,1.07,103.82,.66,67.85,.88,71.07,1.14,77.15,1.05,74.16,.88,76.01,.82,79.50,.57,62.76,.32,78.03,.18,97.67,.12,56.75,.09,55.01,.00,90.00
2016.08.29-22:00,1.04,101.27,.72,60.03,.91,67.39,1.14,79.16,1.06,76.26,.88,76.35,.80,80.35,.58,66.32,.31,75.72,.17,98.19,.11,59.08,.08,54.37,.00,270.00
2016.08.29-23:00,1.05,99.51,.82,56.20,.97,65.56,1.12,80.81,1.05,77.97,.88,76.23,.78,80.60,.57,70.69,.30,75.72,.17,100.92,.09,59.41,.06,45.13,.01,270.00
2016.08.29-24:00,1.09,98.75,.93,55.65,1.04,65.79,1.09,82.04,1.03,79.23,.86,75.74,.74,80.27,.55,75.51,.30,77.79,.16,105.46,.07,57.04,.04,18.78,.02,270.00
2016.08.30-01:00,1.13,99.03,1.02,56.62,1.10,67.38,1.06,82.73,.99,80.05,.84,75.14,.70,79.44,.52,80.15,.29,80.82,.15,111.21,.04,51.27,.04,345.36,.02,270.00
2016.08.30-02:00,1.14,100.40,1.09,58.11,1.14,69.64,1.01,82.84,.95,80.47,.83,74.71,.66,78.28,.49,83.88,.28,83.58,.15,117.08,.03,42.69,.05,332.83,.03,270.00
2016.08.30-03:00,1.13,101.92,1.14,59.78,1.16,72.17,.97,82.27,.91,80.37,.82,74.55,.64,76.98,.46,86.15,.28,85.40,.14,121.32,.03,36.27,.05,337.99,.03,270.00
2016.08.30-04:00,1.07,102.46,1.18,61.63,1.17,74.66,.95,80.98,.89,79.49,.82,74.30,.65,75.44,.45,86.33,.29,85.68,.14,122.10,.04,39.43,.05,356.24,.02,270.00
2016.08.30-05:00,.95,101.49,1.22,63.97,1.16,77.12,.94,79.51,.89,78.14,.84,73.84,.67,73.69,.45,84.15,.31,83.80,.14,118.15,.06,47.06,.06,21.32,.01,270.00
2016.08.30-06:00,.84,98.71,1.26,66.63,1.15,79.20,.96,78.30,.90,76.73,.87,73.16,.70,71.63,.46,80.16,.33,79.97,.15,110.30,.08,54.67,.08,42.63,.01,270.00
2016.08.30-07:00,.75,92.64,1.30,69.43,1.13,80.49,.98,77.43,.93,75.53,.90,72.41,.74,69.49,.47,76.01,.35,75.64,.16,101.38,.11,60.08,.10,55.00,.00,90.00
2016.08.30-08:00,.75,86.43,1.34,72.44,1.12,80.98,1.01,76.97,.97,74.82,.94,72.00,.77,67.85,.48,73.44,.37,72.46,.17,93.61,.14,62.58,.12,59.48,.01,90.00
2016.08.30-09:00,.84,84.25,1.37,75.45,1.11,80.69,1.03,76.65,1.00,74.50,.97,72.09,.81,66.94,.50,72.76,.38,70.54,.18,88.20,.15,63.46,.13,59.55,.01,90.00
2016.08.30-10:00,.96,82.55,1.39,78.21,1.09,79.79,1.03,76.17,1.01,74.39,.99,72.69,.83,66.77,.50,73.23,.39,68.98,.18,84.95,.15,63.76,.13,57.24,.01,90.00
2016.08.30-11:00,1.09,82.05,1.38,80.90,1.08,78.85,1.02,75.54,1.01,74.51,.99,73.85,.84,67.36,.49,74.41,.40,67.95,.18,83.74,.13,63.39,.11,52.05,.00,90.00
2016.08.30-12:00,1.19,82.27,1.34,83.62,1.07,78.12,1.00,74.52,.99,74.61,.98,75.28,.84,68.44,.47,76.07,.39,68.51,.17,85.10,.11,60.98,.09,40.47,.00,270.00
2016.08.30-13:00,1.24,82.57,1.26,86.24,1.06,77.58,.98,72.94,.98,74.44,.96,76.64,.84,69.70,.44,77.63,.38,71.25,.16,89.39,.08,54.01,.08,19.98,.01,270.00
2016.08.30-14:00,1.23,82.82,1.16,88.47,1.04,77.17,.97,70.93,.97,73.96,.94,77.81,.84,71.04,.41,78.06,.37,75.70,.14,95.82,.05,39.86,.07,359.91,.02,270.00
2016.08.30-15:00,1.19,83.48,1.05,90.34,1.02,76.95,.98,69.08,.96,73.27,.92,78.68,.84,72.34,.38,76.30,.36,80.94,.13,101.97,.04,21.35,.07,351.46,.02,270.00
2016.08.30-16:00,1.15,85.10,.95,91.89,1.01,77.08,1.00,68.09,.96,72.68,.89,79.27,.84,73.59,.36,72.10,.34,85.80,.12,105.21,.04,12.48,.07,355.26,.02,270.00
2016.08.30-17:00,1.12,87.67,.87,92.38,1.00,77.46,1.04,68.16,.96,72.41,.87,79.48,.83,74.79,.37,66.65,.33,89.21,.12,104.44,.05,18.30,.06,10.04,.02,270.00
2016.08.30-18:00,1.09,90.38,.81,91.06,1.00,77.80,1.08,69.15,.98,72.54,.85,79.21,.83,75.96,.40,62.35,.33,90.82,.13,100.94,.07,29.15,.07,29.21,.01,270.00
2016.08.30-19:00,1.05,92.45,.77,87.77,1.00,77.80,1.12,70.88,1.00,73.16,.84,78.52,.84,77.11,.44,60.44,.32,90.28,.14,96.69,.09,38.34,.08,43.89,.00,270.00
2016.08.30-20:00,.98,93.16,.74,82.61,1.00,77.15,1.16,73.10,1.03,74.29,.85,77.65,.85,78.17,.49,60.24,.30,86.76,.16,93.19,.11,45.84,.09,53.69,.00,90.00
2016.08.30-21:00,.90,91.87,.74,75.98,1.01,75.73,1.19,75.54,1.06,75.86,.86,76.84,.85,79.24,.53,61.23,.29,80.29,.16,91.37,.13,52.11,.10,60.12,.01,90.00
2016.08.30-22:00,.85,89.65,.77,69.67,1.02,73.98,1.20,77.94,1.07,77.63,.86,76.10,.85,80.30,.56,63.33,.29,73.06,.17,91.90,.13,56.81,.09,62.77,.00,90.00
2016.08.30-23:00,.82,87.08,.83,65.40,1.04,72.52,1.19,79.97,1.06,79.19,.86,75.13,.83,81.15,.57,66.59,.29,68.23,.16,95.24,.11,59.97,.07,59.98,.00,270.00
2016.08.30-24:00,.80,84.35,.89,63.17,1.06,71.67,1.15,81.43,1.02,80.29,.85,73.87,.79,81.66,.57,70.80,.30,67.00,.15,101.28,.09,61.95,.04,44.59,.01,270.00
2016.08.31-01:00,.80,81.43,.95,62.54,1.08,71.65,1.11,82.25,.98,80.82,.84,72.55,.75,81.76,.55,75.42,.30,68.51,.13,109.90,.06,63.67,.03,350.90,.02,270.00
2016.08.31-02:00,.81,78.87,1.02,63.29,1.10,72.51,1.07,82.49,.94,80.73,.84,71.45,.70,81.40,.52,79.79,.30,71.53,.12,120.31,.03,66.84,.04,307.51,.03,270.00
2016.08.31-03:00,.83,77.27,1.07,65.16,1.11,74.04,1.04,82.37,.91,80.12,.85,70.83,.66,80.56,.48,83.28,.29,75.21,.11,129.67,.01,70.51,.05,299.87,.03,270.00
2016.08.31-04:00,.83,76.28,1.09,67.67,1.11,75.83,1.02,82.14,.90,79.18,.86,70.85,.65,79.26,.46,85.44,.29,78.92,.11,134.36,.01,56.85,.05,306.75,.03,270.00
2016.08.31-05:00,.83,75.38,1.10,70.48,1.10,77.47,1.00,81.97,.89,78.07,.89,71.39,.65,77.61,.45,85.93,.31,81.56,.10,131.60,.02,46.99,.04,329.11,.03,270.00
2016.08.31-06:00,.84,74.49,1.11,73.37,1.09,78.75,1.01,81.98,.91,77.05,.93,72.30,.67,75.88,.45,84.83,.33,82.21,.10,120.76,.04,52.51,.05,7.33,.02,270.00
2016.08.31-07:00,.87,73.76,1.11,75.83,1.09,79.32,1.02,81.92,.95,76.05,.98,73.15,.71,73.87,.46,82.38,.34,80.74,.11,105.16,.07,58.19,.07,37.75,.01,270.00
2016.08.31-08:00,.92,75.15,1.10,78.12,1.08,79.34,1.03,81.67,.98,75.15,1.01,73.87,.74,71.72,.47,79.34,.35,77.95,.12,91.62,.10,61.11,.10,51.31,.00,90.00
2016.08.31-09:00,1.00,79.76,1.10,80.52,1.08,79.04,1.04,81.09,1.01,74.50,1.04,74.64,.77,69.79,.48,76.61,.36,74.95,.14,83.05,.12,61.71,.12,56.00,.01,90.00
2016.08.31-10:00,1.07,85.29,1.10,82.48,1.08,78.35,1.03,80.02,1.03,74.14,1.05,75.61,.79,68.36,.48,74.59,.37,72.16,.16,78.48,.13,61.05,.13,56.81,.01,90.00
2016.08.31-11:00,1.11,89.96,1.07,83.63,1.08,77.44,1.00,78.50,1.04,74.08,1.04,76.85,.81,67.45,.48,73.09,.38,69.51,.17,76.74,.13,59.85,.12,55.62,.01,90.00
2016.08.31-12:00,1.10,93.50,1.04,84.29,1.07,76.92,.97,76.71,1.03,74.28,1.02,78.29,.81,67.03,.47,72.09,.38,67.75,.16,77.49,.11,57.21,.10,50.95,.00,270.00
2016.08.31-13:00,1.06,96.97,1.00,84.44,1.07,76.88,.95,74.50,1.01,74.38,.98,79.67,.81,67.08,.44,72.09,.37,68.25,.15,81.08,.08,50.68,.07,37.47,.01,270.00
2016.08.31-14:00,.98,100.24,.95,83.88,1.06,77.10,.94,71.74,.99,73.99,.94,80.69,.81,67.45,.41,72.93,.36,71.46,.14,87.65,.06,36.28,.05,8.92,.02,270.00
2016.08.31-15:00,.86,103.04,.91,82.80,1.05,77.56,.95,68.97,.97,73.28,.90,81.30,.80,68.05,.38,73.29,.34,76.46,.12,96.02,.04,13.55,.05,341.24,.03,270.00
2016.08.31-16:00,.75,105.53,.87,81.81,1.04,78.44,.98,67.22,.97,72.85,.86,81.76,.81,69.09,.35,71.95,.32,82.02,.11,103.49,.04,357.69,.05,332.63,.03,270.00
2016.08.31-17:00,.62,107.74,.84,81.09,1.03,79.44,1.01,66.83,.98,72.94,.83,82.01,.82,70.56,.34,68.68,.31,86.66,.11,107.09,.05,.79,.05,341.62,.03,270.00
2016.08.31-18:00,.49,108.65,.81,80.17,1.00,79.99,1.06,67.55,.99,73.38,.81,81.73,.84,72.27,.36,64.77,.30,89.16,.11,105.88,.06,16.90,.05,7.75,.02,270.00
2016.08.31-19:00,.36,103.75,.78,78.65,.99,79.80,1.11,69.19,1.01,74.17,.81,80.83,.86,74.11,.40,61.62,.30,88.71,.12,101.65,.07,32.70,.06,35.88,.01,270.00
2016.08.31-20:00,.30,84.60,.78,76.62,.98,79.03,1.16,71.59,1.04,75.48,.82,79.59,.89,75.95,.46,59.48,.29,84.79,.13,97.24,.10,43.37,.08,51.93,.00,270.00
2016.08.31-21:00,.36,61.61,.80,74.28,1.00,77.91,1.20,74.36,1.07,77.17,.83,78.19,.91,77.60,.51,58.13,.29,77.48,.13,94.51,.12,50.66,.09,60.05,.00,90.00
2016.08.31-22:00,.51,52.51,.84,71.73,1.01,76.34,1.21,76.86,1.07,78.79,.83,76.49,.91,78.97,.56,58.01,.29,69.23,.14,94.07,.13,56.08,.10,64.00,.00,90.00
2016.08.31-23:00,.67,50.90,.89,69.58,1.02,74.51,1.19,78.72,1.05,79.97,.83,74.26,.89,79.98,.59,59.55,.31,63.65,.14,96.23,.12,60.35,.08,64.46,.00,90.00
2016.08.31-24:00,.81,54.74,.94,69.22,1.03,73.33,1.15,80.12,1.02,80.77,.82,71.79,.85,80.75,.61,62.83,.33,62.18,.13,100.95,.10,63.15,.05,56.81,.01,270.00
2016.09.01-01:00,.91,61.05,.98,70.41,1.04,73.07,1.11,80.99,.97,80.95,.81,69.35,.81,81.28,.61,67.41,.33,64.12,.11,108.69,.06,65.04,.02,11.85,.02,270.00
2016.09.01-02:00,.97,66.45,1.00,72.21,1.06,73.37,1.07,81.14,.93,80.15,.82,67.21,.76,81.52,.59,72.63,.33,68.01,.09,120.02,.03,69.68,.04,300.99,.03,270.00
2016.09.01-03:00,1.00,70.61,1.02,74.52,1.07,74.18,1.05,80.78,.90,78.47,.84,65.73,.72,81.37,.56,77.85,.31,72.49,.08,132.75,.01,129.47,.06,285.83,.04,270.00
2016.09.01-04:00,1.00,74.51,1.01,77.17,1.09,75.40,1.03,80.33,.88,76.43,.86,65.15,.68,80.66,.52,82.58,.29,76.79,.07,141.40,.01,217.95,.06,284.45,.04,270.00
2016.09.01-05:00,.98,77.85,.99,79.56,1.10,76.76,1.02,80.10,.88,74.57,.89,65.51,.66,79.34,.49,86.31,.28,80.49,.06,139.88,.01,222.52,.05,292.87,.04,270.00
2016.09.01-06:00,.94,80.64,.96,81.22,1.10,78.09,1.02,80.21,.90,73.24,.94,66.75,.67,77.76,.49,88.57,.30,82.96,.06,124.66,.00,153.58,.04,322.56,.03,270.00
2016.09.01-07:00,.89,82.53,.92,81.95,1.10,79.22,1.03,80.53,.93,72.47,.99,68.48,.69,76.22,.49,89.11,.32,83.51,.07,101.58,.03,54.89,.04,15.77,.02,270.00
2016.09.01-08:00,.85,83.14,.89,81.45,1.08,79.72,1.03,80.61,.97,71.91,1.03,70.06,.72,74.46,.49,87.96,.33,81.88,.09,85.14,.06,57.08,.07,44.39,.01,270.00
2016.09.01-09:00,.83,82.65,.87,79.94,1.07,79.54,1.03,80.27,1.02,71.70,1.07,71.62,.75,72.62,.49,85.70,.34,78.63,.12,77.12,.09,58.07,.11,54.89,.00,90.00
2016.09.01-10:00,.84,81.20,.89,77.96,1.08,78.80,1.04,79.53,1.06,71.94,1.10,73.19,.78,70.75,.48,82.55,.35,74.43,.15,74.00,.11,57.68,.12,59.13,.01,90.00
2016.09.01-11:00,.86,79.01,.93,76.11,1.08,77.81,1.03,78.59,1.09,72.73,1.11,74.86,.79,69.06,.46,78.67,.36,70.09,.16,73.76,.11,55.79,.12,60.31,.01,90.00
2016.09.01-12:00,.88,76.43,.97,74.97,1.08,77.03,1.02,77.57,1.10,73.98,1.10,76.73,.80,67.80,.43,74.36,.36,66.50,.17,75.66,.10,51.84,.10,58.51,.00,90.00
2016.09.01-13:00,.89,73.37,1.00,74.57,1.08,76.63,1.00,76.21,1.09,75.28,1.07,78.63,.79,67.01,.40,70.02,.36,64.58,.16,79.99,.08,44.54,.07,51.25,.01,270.00
2016.09.01-14:00,.89,69.35,1.02,74.42,1.08,76.46,.98,74.13,1.07,76.17,1.03,80.32,.79,66.63,.37,66.25,.35,65.21,.14,87.48,.06,30.43,.04,27.28,.02,270.00
2016.09.01-15:00,.88,64.69,1.01,74.29,1.07,76.47,.97,71.42,1.04,76.42,.98,81.65,.78,66.47,.36,63.41,.33,68.68,.12,98.30,.05,7.46,.03,336.00,.03,270.00
2016.09.01-16:00,.87,60.57,.99,74.26,1.05,76.69,.97,68.73,1.02,76.22,.94,82.59,.79,66.51,.35,61.21,.32,74.17,.10,110.70,.04,348.39,.05,312.11,.03,270.00
2016.09.01-17:00,.87,57.95,.98,74.41,1.04,77.13,1.00,66.98,1.00,76.06,.90,83.24,.80,67.06,.36,59.35,.31,79.93,.10,120.62,.04,346.95,.05,313.62,.03,270.00
2016.09.01-18:00,.87,57.50,.96,74.61,1.03,77.66,1.04,66.70,.99,76.30,.86,83.56,.82,68.36,.38,57.87,.31,83.83,.09,124.46,.05,2.57,.04,333.75,.03,270.00
2016.09.01-19:00,.79,64.61,.95,74.31,1.02,77.77,1.09,67.63,1.00,76.84,.85,83.24,.85,70.15,.43,56.88,.31,84.76,.09,120.73,.06,25.33,.04,13.92,.02,270.00
2016.09.01-20:00,.79,63.72,.97,73.37,1.03,77.21,1.15,69.37,1.02,77.50,.84,82.11,.89,72.06,.48,56.61,.31,83.03,.09,110.77,.08,41.50,.07,42.88,.01,270.00
2016.09.01-21:00,.83,62.29,1.00,72.24,1.06,76.14,1.21,71.54,1.04,78.20,.84,80.18,.92,73.68,.53,56.85,.31,79.24,.10,99.52,.11,50.57,.09,54.82,.00,90.00
2016.09.01-22:00,.89,63.45,1.05,71.68,1.09,75.03,1.25,73.95,1.05,78.92,.85,77.69,.93,74.83,.58,57.49,.31,74.24,.11,91.45,.12,56.12,.10,59.98,.00,90.00
2016.09.01-23:00,.96,64.86,1.11,71.63,1.12,73.95,1.27,76.15,1.05,79.33,.85,74.79,.93,75.41,.62,58.64,.32,69.39,.11,87.18,.12,60.78,.09,63.08,.00,90.00
2016.09.01-24:00,1.03,66.73,1.15,72.29,1.13,73.20,1.25,78.10,1.02,79.42,.85,71.90,.90,75.71,.64,60.75,.32,66.10,.11,85.75,.10,65.46,.07,64.73,.00,270.00
2016.09.02-01:00,1.08,69.81,1.18,74.04,1.14,73.36,1.20,79.89,.97,79.16,.85,69.53,.87,76.10,.65,64.22,.32,65.10,.09,86.95,.07,70.39,.03,59.46,.01,270.00
2016.09.02-02:00,1.11,73.39,1.21,76.48,1.16,74.35,1.16,81.25,.94,78.13,.86,67.83,.84,76.56,.64,69.01,.32,66.51,.07,93.39,.03,79.61,.01,309.04,.02,270.00
2016.09.02-03:00,1.12,76.05,1.23,79.02,1.18,75.83,1.12,81.96,.91,76.22,.88,66.83,.81,76.85,.62,74.53,.30,69.46,.05,108.99,.01,193.18,.05,274.04,.04,270.00
2016.09.02-04:00,1.11,77.88,1.24,81.56,1.19,77.62,1.09,82.13,.91,73.96,.91,66.66,.77,76.86,.58,79.96,.28,72.51,.05,129.94,.03,235.01,.07,272.31,.04,270.00
2016.09.02-05:00,1.08,78.80,1.22,84.00,1.19,79.35,1.06,81.89,.91,71.85,.94,67.27,.75,76.66,.54,84.75,.26,75.31,.05,139.90,.04,240.89,.07,276.09,.04,270.00
2016.09.02-06:00,1.03,78.82,1.18,86.24,1.17,80.81,1.03,81.48,.93,70.34,.96,68.73,.74,76.69,.51,88.59,.27,78.34,.05,132.21,.04,249.90,.06,289.07,.04,270.00
2016.09.02-07:00,.97,77.99,1.12,88.01,1.15,81.78,1.02,81.03,.96,69.62,1.00,70.80,.76,77.02,.50,90.87,.28,80.60,.06,113.57,.02,280.37,.04,323.04,.03,270.00
2016.09.02-08:00,.92,75.72,1.07,88.80,1.14,82.10,1.03,80.52,1.01,69.56,1.03,72.89,.78,77.21,.49,91.16,.30,80.65,.07,95.74,.02,7.24,.05,12.09,.02,270.00
2016.09.02-09:00,.86,71.19,1.02,87.82,1.13,81.44,1.04,79.60,1.06,69.59,1.05,74.25,.79,76.65,.48,89.56,.32,78.29,.10,84.61,.05,37.43,.08,39.43,.01,270.00
2016.09.02-10:00,.85,64.61,.98,84.92,1.12,79.89,1.05,78.19,1.11,69.77,1.06,74.94,.80,75.28,.47,86.52,.33,74.35,.12,79.25,.08,45.85,.11,51.39,.00,90.00
2016.09.02-11:00,.89,58.27,.98,81.18,1.13,78.17,1.06,76.76,1.16,70.63,1.07,75.63,.81,73.71,.45,82.56,.35,69.98,.13,77.09,.09,47.40,.12,56.87,.01,90.00
2016.09.02-12:00,.98,53.77,1.01,77.92,1.14,76.85,1.07,75.51,1.19,72.11,1.06,76.51,.81,72.23,.43,77.67,.36,65.73,.14,77.18,.09,45.43,.11,59.50,.00,90.00
2016.09.02-13:00,1.09,51.92,1.05,76.01,1.15,76.21,1.07,74.27,1.20,73.86,1.03,77.37,.80,70.70,.40,71.58,.37,62.21,.13,80.10,.08,39.90,.08,60.01,.00,270.00